GFSNE_prec_kuchsnow_318.txt.gz
Snowfall_Accumulation
0.0 0.0 0.0 0.0 0.0 0.0 0.0 0.0 0.0 0.0 0.0 0.0 0.0 0.0 0.0 0.0 0.0 0.0 0.0 0.0 0.0 0.0 0.0 0.0 0.0 0.0 0.0 0.0 0.0 0.0 0.0 0.0 0.0 0.0 0.0 0.0 0.0 0.0
0.0 0.0 0.0 0.0 0.0 0.0 0.0 0.0 0.0 0.0 0.0 0.0 0.0 0.0 0.0 0.0 0.0 0.0 0.0 0.0 0.0 0.0 0.0 0.0 0.0 0.0 0.0 0.0 0.0 0.0 0.0 0.0 0.0 0.0 0.0 0.0 0.0 0.0
0.0 0.0 0.0 0.0 0.0 0.0 0.0 0.0 0.0 0.0 0.0 0.1 0.0 0.0 0.0 0.0 0.0 0.0 0.0 0.0 0.0 0.0 0.0 0.0 0.0 0.0 0.0 0.0 0.0 0.0 0.0 0.0 0.0 0.0 0.0 0.0 0.0 0.0
0.0 0.0 0.0 0.0 0.0 0.0 0.0 0.0 0.0 0.0 0.0 0.1 0.0 0.3 0.4 0.1 0.2 0.0 0.0 0.0 0.0 0.0 0.0 0.0 0.0 0.0 0.0 0.0 0.0 0.0 0.0 0.0 0.0 0.0 0.0 0.0 0.0 0.0
0.0 0.0 0.0 0.0 0.0 0.0 0.1 0.0 0.4 0.3 0.2 0.1 0.3 0.8 1.3 0.9 2.0 1.6 1.1 0.0 0.0 0.0 0.0 0.0 0.0 0.0 0.0 0.0 0.0 0.0 0.0 0.0 0.0 0.0 0.0 0.0 0.0 0.0
0.0 0.0 0.0 0.3 0.4 0.0 0.9 1.0 0.7 1.0 0.5 0.7 0.3 1.0 0.8 0.5 0.3 0.4 0.4 0.2 0.0 0.0 0.0 0.0 0.0 0.0 0.0 0.0 0.0 0.0 0.0 0.0 0.0 0.0 0.0 0.0 0.0 0.0
0.0 0.2 0.1 0.0 0.8 1.9 1.5 1.0 1.1 0.8 0.9 1.0 0.9 0.3 0.3 0.3 0.3 0.2 0.1 0.0 0.0 0.0 0.0 0.0 0.0 0.0 0.0 0.0 0.0 0.0 0.0 0.0 0.0 0.0 0.0 0.0 0.0 0.0
0.0 1.3 1.2 1.7 0.6 0.0 0.0 0.0 0.0 0.8 1.1 0.9 0.4 0.0 0.0 0.0 0.0 0.0 0.2 0.9 3.0 0.2 0.3 0.5 0.0 0.1 0.0 0.0 0.0 0.0 0.0 0.0 0.0 0.0 0.0 0.0 0.0 0.0
1.7 1.5 0.4 0.5 0.4 0.5 0.1 0.0 0.2 0.0 0.0 0.1 0.0 0.0 0.0 0.0 0.4 0.5 1.3 2.1 2.0 3.1 1.7 10.1 1.1 1.4 0.0 0.0 0.0 0.0 0.0 0.0 0.0 0.0 0.0 0.0 0.0 0.0
1.1 0.7 0.3 0.0 0.0 0.1 0.1 0.4 0.0 0.0 0.0 0.0 0.0 0.0 0.1 0.1 0.3 0.5 1.1 3.3 3.6 2.8 0.8 9.1 6.4 3.9 0.5 0.2 0.0 0.0 0.0 0.0 0.0 0.0 0.0 0.0 0.0 0.0
0.3 0.0 0.0 0.0 0.0 0.0 0.2 0.8 0.7 0.3 0.0 0.0 0.0 0.0 0.0 0.0 0.0 0.2 2.2 5.3 7.3 5.1 3.6 4.5 5.8 7.2 6.8 2.0 0.0 0.0 0.0 0.0 0.0 0.0 0.0 0.0 0.0 0.0
0.1 0.0 0.0 0.0 0.0 0.0 0.4 0.6 1.1 1.3 0.9 1.0 0.8 0.2 0.1 0.0 0.0 0.0 0.9 8.2 7.9 7.9 2.2 7.6 5.2 5.8 11.7 6.2 3.8 0.4 0.2 0.0 0.0 0.0 0.0 0.0 0.0 0.0
0.0 0.0 0.0 0.0 0.0 0.0 0.2 0.3 1.8 0.7 1.7 2.9 2.5 2.5 2.1 2.3 0.4 0.6 0.9 4.5 12.8 10.1 1.5 9.8 12.6 5.2 10.0 5.9 3.9 3.7 2.1 0.2 0.0 0.0 0.0 0.0 0.1 0.1
0.1 0.0 0.0 0.1 0.0 0.0 0.2 0.0 0.1 0.3 1.3 1.2 1.2 1.6 2.1 2.5 2.3 3.0 3.3 3.4 3.7 5.0 2.8 3.7 20.1 8.7 14.1 12.5 4.5 4.4 4.4 2.6 1.2 1.2 0.8 0.1 0.0 0.0
0.0 0.0 0.0 0.0 0.1 0.0 0.0 0.1 0.2 0.6 0.9 1.6 1.6 1.6 1.5 1.5 2.2 2.0 2.4 3.4 3.4 3.1 3.7 3.8 6.8 8.5 13.6 15.8 9.0 5.0 5.0 4.4 2.3 1.3 1.3 1.6 1.5 0.4
0.0 0.0 0.2 0.1 0.0 0.0 0.2 0.3 0.2 0.3 1.1 1.4 2.1 1.4 1.1 1.7 3.0 3.0 4.0 3.6 5.8 4.7 4.7 5.5 5.2 7.3 15.0 7.6 8.6 8.4 3.5 4.7 2.9 2.1 2.2 1.5 1.2 1.4
0.3 0.3 0.3 1.5 2.1 1.9 1.6 1.6 0.5 1.5 1.7 1.2 2.7 3.0 2.5 2.5 2.5 2.3 3.7 5.1 9.4 6.7 7.8 6.8 6.9 6.8 6.2 7.5 12.8 4.2 3.6 3.3 2.5 3.1 2.8 2.4 1.0 1.9
1.7 1.5 2.1 2.0 2.4 2.6 2.5 2.6 2.2 2.1 2.2 4.0 4.9 4.4 5.9 5.5 4.7 5.9 6.2 7.6 9.1 5.3 7.7 9.2 10.3 12.7 10.8 9.3 2.9 7.6 6.6 3.9 4.1 2.6 2.3 5.9 3.0 0.8
2.1 2.0 2.0 2.6 2.8 2.9 3.3 3.4 4.0 2.6 2.9 5.5 7.5 7.9 9.7 8.6 8.5 8.3 5.5 6.2 7.3 5.1 7.2 9.0 12.6 18.7 24.9 11.5 5.6 3.3 8.8 8.0 5.2 5.3 3.7 3.8 4.6 1.9
1.4 1.9 1.9 2.2 2.9 3.8 3.6 5.0 4.9 5.0 5.7 6.2 7.5 7.9 10.6 12.8 10.7 8.8 6.4 9.3 9.2 6.2 6.5 8.0 9.0 13.6 27.7 19.6 16.7 5.3 4.3 7.9 9.7 7.5 4.2 2.2 2.2 0.2
2.3 3.6 2.9 2.2 3.7 3.8 5.2 6.8 6.8 7.7 7.7 9.7 8.3 8.3 8.3 13.6 11.6 6.8 7.8 4.6 7.9 8.9 11.1 5.6 4.1 4.2 10.8 18.6 22.9 9.6 8.4 4.8 3.7 10.1 8.1 10.6 5.2 3.2
2.2 3.0 2.6 3.1 3.9 5.6 6.9 7.9 8.5 6.6 7.0 6.5 5.9 6.7 7.9 11.1 14.0 10.5 8.3 11.0 6.7 5.5 6.3 4.2 5.3 7.3 10.6 16.6 13.7 6.8 6.9 5.9 5.1 1.9 1.4 6.4 19.0 21.8
3.4 4.2 3.8 4.8 5.2 7.2 7.9 8.4 7.6 5.9 5.3 6.9 6.8 6.4 8.6 13.1 7.9 8.8 9.1 8.0 8.0 10.6 6.9 8.0 6.0 5.7 8.2 9.5 10.5 10.2 7.6 6.5 5.2 4.8 4.5 1.3 1.3 0.8

GFSNE_prec_kuchsnow_321.txt.gz
Snowfall_Accumulation
0.0 0.0 0.0 0.0 0.0 0.0 0.0 0.0 0.0 0.0 0.0 0.0 0.0 0.0 0.0 0.0 0.0 0.0 0.0 0.0 0.0 0.0 0.0 0.0 0.0 0.0 0.0 0.0 0.0 0.0 0.0 0.0 0.0 0.0 0.0 0.0 0.0 0.0
0.0 0.0 0.0 0.0 0.0 0.0 0.0 0.0 0.0 0.0 0.0 0.0 0.0 0.0 0.0 0.0 0.0 0.0 0.0 0.0 0.0 0.0 0.0 0.0 0.0 0.0 0.0 0.0 0.0 0.0 0.0 0.0 0.0 0.0 0.0 0.0 0.0 0.0
0.0 0.0 0.0 0.0 0.0 0.0 0.0 0.0 0.0 0.0 0.0 0.1 0.0 0.0 0.0 0.0 0.0 0.0 0.0 0.0 0.0 0.0 0.0 0.0 0.0 0.0 0.0 0.0 0.0 0.0 0.0 0.0 0.0 0.0 0.0 0.0 0.0 0.0
0.0 0.0 0.0 0.0 0.0 0.0 0.0 0.0 0.0 0.0 0.0 0.1 0.0 0.3 0.4 0.1 0.2 0.0 0.0 0.0 0.0 0.0 0.0 0.0 0.0 0.0 0.0 0.0 0.0 0.0 0.0 0.0 0.0 0.0 0.0 0.0 0.0 0.0
0.0 0.0 0.0 0.0 0.0 0.0 0.1 0.0 0.4 0.3 0.2 0.1 0.3 0.8 1.3 0.9 2.0 1.6 1.1 0.0 0.0 0.0 0.0 0.0 0.0 0.0 0.0 0.0 0.0 0.0 0.0 0.0 0.0 0.0 0.0 0.0 0.0 0.0
0.0 0.0 0.0 0.3 0.4 0.0 0.9 1.0 0.7 1.0 0.5 0.7 0.3 1.0 0.8 0.5 0.3 0.4 0.4 0.2 0.0 0.0 0.0 0.0 0.0 0.0 0.0 0.0 0.0 0.0 0.0 0.0 0.0 0.0 0.0 0.0 0.0 0.0
0.0 0.2 0.1 0.0 0.8 1.9 1.5 1.0 1.1 0.8 0.9 1.0 0.9 0.3 0.3 0.3 0.3 0.2 0.1 0.0 0.0 0.0 0.0 0.0 0.0 0.0 0.0 0.0 0.0 0.0 0.0 0.0 0.0 0.0 0.0 0.0 0.0 0.0
0.0 1.3 1.2 1.7 0.6 0.0 0.0 0.0 0.0 0.8 1.1 0.9 0.4 0.0 0.0 0.0 0.0 0.0 0.2 0.9 3.0 0.2 0.3 0.5 0.0 0.1 0.0 0.0 0.0 0.0 0.0 0.0 0.0 0.0 0.0 0.0 0.0 0.0
1.7 1.5 0.4 0.5 0.4 0.5 0.1 0.0 0.2 0.0 0.0 0.1 0.0 0.0 0.0 0.0 0.4 0.5 1.3 2.1 2.0 3.1 1.7 10.1 1.1 1.4 0.0 0.0 0.0 0.0 0.0 0.0 0.0 0.0 0.0 0.0 0.0 0.0
1.1 0.7 0.3 0.0 0.0 0.1 0.1 0.4 0.0 0.0 0.0 0.0 0.0 0.0 0.1 0.1 0.3 0.5 1.1 3.3 3.6 2.8 0.8 9.1 6.4 3.9 0.5 0.2 0.0 0.0 0.0 0.0 0.0 0.0 0.0 0.0 0.0 0.0
0.3 0.0 0.0 0.0 0.0 0.0 0.2 0.8 0.7 0.3 0.0 0.0 0.0 0.0 0.0 0.0 0.0 0.2 2.2 5.3 7.3 5.1 3.7 4.5 5.8 7.2 6.8 2.0 0.0 0.0 0.0 0.0 0.0 0.0 0.0 0.0 0.0 0.0
0.1 0.0 0.0 0.0 0.0 0.0 0.4 0.6 1.1 1.3 0.9 1.0 0.8 0.2 0.1 0.0 0.0 0.0 0.9 8.3 7.9 7.9 2.2 7.8 5.2 5.9 11.9 6.2 3.8 0.4 0.2 0.0 0.0 0.0 0.0 0.0 0.0 0.0
0.0 0.0 0.0 0.0 0.0 0.0 0.2 0.3 1.8 0.7 1.7 2.9 2.5 2.5 2.1 2.3 0.4 0.6 0.9 4.6 12.9 10.2 1.5 10.1 12.6 5.2 10.2 5.9 3.9 3.7 2.1 0.2 0.0 0.0 0.0 0.0 0.1 0.1
0.1 0.0 0.0 0.1 0.0 0.0 0.2 0.0 0.1 0.3 1.3 1.2 1.2 1.6 2.1 2.5 2.3 3.0 3.3 3.4 3.7 5.0 2.8 3.7 20.4 8.9 14.5 12.7 4.5 4.4 4.4 2.6 1.2 1.2 0.8 0.1 0.0 0.0
0.0 0.0 0.0 0.0 0.1 0.0 0.0 0.1 0.2 0.6 0.9 1.6 1.6 1.6 1.5 1.5 2.2 2.0 2.4 3.4 3.4 3.1 3.7 3.8 6.9 8.6 13.9 16.1 9.1 5.0 5.1 4.4 2.3 1.3 1.3 1.6 1.5 0.4
0.0 0.0 0.2 0.1 0.0 0.0 0.2 0.3 0.2 0.3 1.1 1.4 2.1 1.4 1.1 1.7 3.0 3.0 4.0 3.6 5.8 4.7 4.7 5.5 5.2 7.4 15.1 7.7 8.7 8.4 3.5 4.8 2.9 2.1 2.2 1.5 1.2 1.4
0.3 0.3 0.3 1.5 2.1 1.9 1.6 1.6 0.5 1.5 1.7 1.2 2.7 3.0 2.5 2.5 2.5 2.3 3.7 5.1 9.4 6.7 7.8 6.8 6.9 6.8 6.2 7.5 12.9 4.2 3.6 3.4 2.5 3.1 2.8 2.4 1.0 1.9
1.7 1.5 2.1 2.0 2.4 2.6 2.5 2.6 2.2 2.1 2.2 4.0 4.9 4.4 5.9 5.5 4.7 5.9 6.2 7.6 9.1 5.3 7.7 9.2 10.3 12.7 10.8 9.3 2.9 7.6 6.6 4.0 4.1 2.6 2.3 5.9 3.0 0.8
2.1 2.0 2.0 2.6 2.8 2.9 3.3 3.4 4.0 2.6 2.9 5.5 7.5 7.9 9.7 8.6 8.5 8.3 5.5 6.2 7.3 5.1 7.2 9.0 12.7 18.8 25.0 11.6 5.7 3.3 9.0 8.2 5.3 5.3 3.7 3.8 4.6 1.9
1.4 1.9 1.9 2.2 2.9 3.8 3.6 5.0 4.9 5.0 5.7 6.2 7.5 7.9 10.6 12.8 10.7 8.8 6.4 9.4 9.3 6.2 6.5 8.0 9.0 13.7 27.8 19.7 16.8 5.3 4.3 8.1 9.9 7.6 4.3 2.2 2.2 0.2
2.3 3.6 2.9 2.2 3.7 3.8 5.2 6.8 6.8 7.7 7.7 9.7 8.3 8.3 8.3 13.6 11.6 6.8 7.8 4.6 8.0 8.9 11.1 5.6 4.1 4.2 10.9 18.7 23.0 9.7 8.4 4.8 3.8 10.3 8.2 10.6 5.2 3.2
2.2 3.0 2.6 3.1 3.9 5.6 6.9 7.9 8.5 6.6 7.0 6.5 5.9 6.7 7.9 11.1 14.0 10.6 8.4 11.1 6.7 5.6 6.3 4.2 5.3 7.3 10.7 16.7 13.8 6.9 6.9 5.9 5.2 2.0 1.4 6.4 19.0 21.9
3.4 4.2 3.8 4.8 5.2 7.2 7.9 8.4 7.6 5.9 5.3 6.9 6.8 6.4 8.6 13.1 7.9 8.9 9.2 8.0 8.0 10.6 7.0 8.0 6.0 5.7 8.3 9.6 10.7 10.3 7.6 6.7 5.4 4.9 4.6 1.3 1.3 0.8

GFSNE_prec_kuchsnow_324.txt.gz
Snowfall_Accumulation
0.0 0.0 0.0 0.0 0.0 0.0 0.0 0.0 0.0 0.0 0.0 0.0 0.0 0.0 0.0 0.0 0.0 0.0 0.0 0.0 0.0 0.0 0.0 0.0 0.0 0.0 0.0 0.0 0.0 0.0 0.0 0.0 0.0 0.0 0.0 0.0 0.0 0.0
0.0 0.0 0.0 0.0 0.0 0.0 0.0 0.0 0.0 0.0 0.0 0.0 0.0 0.0 0.0 0.0 0.0 0.0 0.0 0.0 0.0 0.0 0.0 0.0 0.0 0.0 0.0 0.0 0.0 0.0 0.0 0.0 0.0 0.0 0.0 0.0 0.0 0.0
0.0 0.0 0.0 0.0 0.0 0.0 0.0 0.0 0.0 0.0 0.0 0.1 0.0 0.0 0.0 0.0 0.0 0.0 0.0 0.0 0.0 0.0 0.0 0.0 0.0 0.0 0.0 0.0 0.0 0.0 0.0 0.0 0.0 0.0 0.0 0.0 0.0 0.0
0.0 0.0 0.0 0.0 0.0 0.0 0.0 0.0 0.0 0.0 0.0 0.1 0.0 0.3 0.4 0.1 0.2 0.0 0.0 0.0 0.0 0.0 0.0 0.0 0.0 0.0 0.0 0.0 0.0 0.0 0.0 0.0 0.0 0.0 0.0 0.0 0.0 0.0
0.0 0.0 0.0 0.0 0.0 0.0 0.1 0.0 0.4 0.3 0.2 0.1 0.3 0.8 1.3 0.9 2.0 1.6 1.1 0.0 0.0 0.0 0.0 0.0 0.0 0.0 0.0 0.0 0.0 0.0 0.0 0.0 0.0 0.0 0.0 0.0 0.0 0.0
0.0 0.0 0.0 0.3 0.4 0.0 0.9 1.0 0.7 1.0 0.5 0.7 0.3 1.0 0.8 0.5 0.3 0.4 0.4 0.2 0.0 0.0 0.0 0.0 0.0 0.0 0.0 0.0 0.0 0.0 0.0 0.0 0.0 0.0 0.0 0.0 0.0 0.0
0.0 0.2 0.1 0.0 0.8 1.9 1.5 1.0 1.1 0.8 0.9 1.0 0.9 0.3 0.3 0.3 0.3 0.2 0.1 0.0 0.0 0.0 0.0 0.0 0.0 0.0 0.0 0.0 0.0 0.0 0.0 0.0 0.0 0.0 0.0 0.0 0.0 0.0
0.0 1.3 1.2 1.7 0.6 0.0 0.0 0.0 0.0 0.8 1.1 0.9 0.4 0.0 0.0 0.0 0.0 0.0 0.2 0.9 3.0 0.2 0.3 0.5 0.0 0.1 0.0 0.0 0.0 0.0 0.0 0.0 0.0 0.0 0.0 0.0 0.0 0.0
1.7 1.5 0.4 0.5 0.4 0.5 0.1 0.0 0.2 0.0 0.0 0.1 0.0 0.0 0.0 0.0 0.4 0.5 1.3 2.1 2.0 3.1 1.7 10.1 1.1 1.4 0.0 0.0 0.0 0.0 0.0 0.0 0.0 0.0 0.0 0.0 0.0 0.0
1.1 0.7 0.3 0.0 0.0 0.1 0.1 0.4 0.0 0.0 0.0 0.0 0.0 0.0 0.1 0.1 0.3 0.5 1.1 3.3 3.6 2.8 0.8 9.1 6.4 3.9 0.5 0.2 0.0 0.0 0.0 0.0 0.0 0.0 0.0 0.0 0.0 0.0
0.3 0.0 0.0 0.0 0.0 0.0 0.2 0.8 0.7 0.3 0.0 0.0 0.0 0.0 0.0 0.0 0.0 0.2 2.2 5.3 7.3 5.1 3.7 4.5 5.8 7.2 6.8 2.0 0.0 0.0 0.0 0.0 0.0 0.0 0.0 0.0 0.0 0.0
0.1 0.0 0.0 0.0 0.0 0.0 0.4 0.6 1.1 1.3 0.9 1.0 0.8 0.2 0.1 0.0 0.0 0.0 0.9 8.4 8.0 7.9 2.2 7.9 5.2 5.9 11.9 6.2 3.8 0.4 0.2 0.0 0.0 0.0 0.0 0.0 0.0 0.0
0.0 0.0 0.0 0.0 0.0 0.0 0.2 0.3 1.8 0.7 1.7 2.9 2.5 2.5 2.1 2.3 0.4 0.6 0.9 4.6 13.1 10.4 1.5 10.2 12.6 5.2 10.2 5.9 3.9 3.7 2.1 0.2 0.0 0.0 0.0 0.0 0.1 0.1
0.1 0.0 0.0 0.1 0.0 0.0 0.2 0.0 0.1 0.3 1.3 1.2 1.2 1.6 2.1 2.5 2.3 3.0 3.3 3.4 3.7 5.0 2.8 3.7 20.5 9.0 14.7 12.8 4.5 4.4 4.4 2.6 1.2 1.2 0.8 0.1 0.0 0.0
0.0 0.0 0.0 0.0 0.1 0.0 0.0 0.1 0.2 0.6 0.9 1.6 1.6 1.6 1.5 1.5 2.2 2.0 2.4 3.4 3.4 3.1 3.7 3.8 6.9 8.6 14.1 16.4 9.4 5.0 5.2 4.5 2.3 1.3 1.3 1.6 1.5 0.4
0.0 0.0 0.2 0.1 0.0 0.0 0.2 0.3 0.2 0.3 1.1 1.4 2.1 1.4 1.1 1.7 3.0 3.0 4.0 3.6 5.8 4.7 4.7 5.5 5.2 7.4 15.2 7.7 9.0 8.4 3.5 5.0 3.0 2.1 2.2 1.5 1.2 1.4
0.3 0.3 0.3 1.6 2.1 1.9 1.6 1.6 0.5 1.5 1.7 1.2 2.7 3.0 2.5 2.5 2.5 2.3 3.7 5.1 9.5 6.7 7.8 6.8 6.9 6.8 6.2 7.5 12.9 4.2 3.6 3.5 2.6 3.2 2.8 2.4 1.0 1.9
1.7 1.5 2.1 2.0 2.4 2.6 2.5 2.6 2.2 2.1 2.2 4.0 4.9 4.4 5.9 5.5 4.7 5.9 6.2 7.6 9.1 5.3 7.7 9.2 10.3 12.7 10.8 9.3 3.0 7.7 6.6 4.1 4.2 2.7 2.3 5.9 3.0 0.8
2.1 2.0 2.1 2.7 2.8 2.9 3.3 3.4 4.0 2.6 2.9 5.5 7.5 7.9 9.7 8.6 8.5 8.3 5.5 6.2 7.3 5.1 7.2 9.0 12.7 18.9 25.0 11.6 5.7 3.4 9.0 8.2 5.5 5.4 3.8 3.8 4.6 1.9
1.5 2.0 1.9 2.2 2.9 3.8 3.6 5.0 4.9 5.0 5.7 6.2 7.5 7.9 10.6 12.9 10.7 8.8 6.4 9.4 9.3 6.2 6.5 8.0 9.0 13.8 28.0 19.9 17.0 5.3 4.3 8.2 10.1 7.8 4.4 2.2 2.2 0.2
2.3 3.6 2.9 2.2 3.7 3.8 5.2 6.8 6.8 7.7 7.7 9.7 8.3 8.3 8.3 13.6 11.6 6.8 7.8 4.6 8.0 8.9 11.2 5.6 4.1 4.2 10.9 18.7 23.2 9.7 8.6 4.8 4.0 10.5 8.3 10.7 5.2 3.2
2.2 3.0 2.6 3.1 3.9 5.6 6.9 7.9 8.5 6.6 7.0 6.5 5.9 6.7 7.9 11.1 14.1 10.6 8.4 11.2 6.7 5.7 6.4 4.2 5.3 7.3 10.7 16.9 13.8 6.9 7.0 5.9 5.4 2.1 1.4 6.4 19.0 21.9
3.4 4.2 3.8 4.8 5.2 7.2 7.9 8.4 7.6 5.9 5.3 6.9 6.8 6.4 8.6 13.1 7.9 9.0 9.2 8.0 8.0 10.7 7.1 8.1 6.0 5.7 8.3 9.6 10.8 10.5 7.7 6.8 5.6 5.0 4.7 1.3 1.3 0.8

GFSNE_prec_kuchsnow_327.txt.gz
Snowfall_Accumulation
0.0 0.0 0.0 0.0 0.0 0.0 0.0 0.0 0.0 0.0 0.0 0.0 0.0 0.0 0.0 0.0 0.0 0.0 0.0 0.0 0.0 0.0 0.0 0.0 0.0 0.0 0.0 0.0 0.0 0.0 0.0 0.0 0.0 0.0 0.0 0.0 0.0 0.0
0.0 0.0 0.0 0.0 0.0 0.0 0.0 0.0 0.0 0.0 0.0 0.0 0.0 0.0 0.0 0.0 0.0 0.0 0.0 0.0 0.0 0.0 0.0 0.0 0.0 0.0 0.0 0.0 0.0 0.0 0.0 0.0 0.0 0.0 0.0 0.0 0.0 0.0
0.0 0.0 0.0 0.0 0.0 0.0 0.0 0.0 0.0 0.0 0.0 0.1 0.0 0.0 0.0 0.0 0.0 0.0 0.0 0.0 0.0 0.0 0.0 0.0 0.0 0.0 0.0 0.0 0.0 0.0 0.0 0.0 0.0 0.0 0.0 0.0 0.0 0.0
0.0 0.0 0.0 0.0 0.0 0.0 0.0 0.0 0.0 0.0 0.0 0.1 0.0 0.3 0.4 0.1 0.2 0.0 0.0 0.0 0.0 0.0 0.0 0.0 0.0 0.0 0.0 0.0 0.0 0.0 0.0 0.0 0.0 0.0 0.0 0.0 0.0 0.0
0.0 0.0 0.0 0.0 0.0 0.0 0.1 0.0 0.4 0.3 0.2 0.1 0.3 0.8 1.3 0.9 2.0 1.6 1.1 0.0 0.0 0.0 0.0 0.0 0.0 0.0 0.0 0.0 0.0 0.0 0.0 0.0 0.0 0.0 0.0 0.0 0.0 0.0
0.0 0.0 0.0 0.3 0.4 0.0 0.9 1.0 0.7 1.0 0.5 0.7 0.3 1.0 0.8 0.5 0.3 0.4 0.4 0.2 0.0 0.0 0.0 0.0 0.0 0.0 0.0 0.0 0.0 0.0 0.0 0.0 0.0 0.0 0.0 0.0 0.0 0.0
0.0 0.2 0.1 0.0 0.8 1.9 1.5 1.0 1.1 0.8 0.9 1.0 0.9 0.3 0.3 0.3 0.3 0.2 0.1 0.0 0.0 0.0 0.0 0.0 0.0 0.0 0.0 0.0 0.0 0.0 0.0 0.0 0.0 0.0 0.0 0.0 0.0 0.0
0.0 1.3 1.2 1.7 0.6 0.0 0.0 0.0 0.0 0.8 1.1 0.9 0.4 0.0 0.0 0.0 0.0 0.0 0.2 0.9 3.0 0.2 0.3 0.5 0.0 0.1 0.0 0.0 0.0 0.0 0.0 0.0 0.0 0.0 0.0 0.0 0.0 0.0
1.7 1.5 0.4 0.5 0.4 0.5 0.1 0.0 0.2 0.0 0.0 0.1 0.0 0.0 0.0 0.0 0.4 0.5 1.3 2.1 2.0 3.1 1.7 10.1 1.1 1.4 0.0 0.0 0.0 0.0 0.0 0.0 0.0 0.0 0.0 0.0 0.0 0.0
1.1 0.7 0.3 0.0 0.0 0.1 0.1 0.4 0.0 0.0 0.0 0.0 0.0 0.0 0.1 0.1 0.3 0.5 1.1 3.3 3.6 2.8 0.8 9.1 6.4 3.9 0.5 0.2 0.0 0.0 0.0 0.0 0.0 0.0 0.0 0.0 0.0 0.0
0.3 0.0 0.0 0.0 0.0 0.0 0.2 0.9 0.7 0.3 0.0 0.0 0.0 0.0 0.0 0.0 0.0 0.2 2.2 5.3 7.3 5.1 3.7 4.5 5.8 7.2 6.8 2.0 0.0 0.0 0.0 0.0 0.0 0.0 0.0 0.0 0.0 0.0
0.1 0.0 0.0 0.0 0.0 0.0 0.4 0.6 1.2 1.3 0.9 1.0 0.8 0.2 0.1 0.0 0.0 0.0 0.9 8.4 8.1 7.9 2.2 8.1 5.2 5.9 11.9 6.2 3.8 0.4 0.2 0.0 0.0 0.0 0.0 0.0 0.0 0.0
0.0 0.0 0.0 0.0 0.0 0.0 0.2 0.3 1.8 0.7 1.7 2.9 2.5 2.5 2.1 2.3 0.4 0.6 0.9 4.6 13.1 10.4 1.5 10.4 12.6 5.2 10.2 5.9 3.9 3.7 2.1 0.2 0.0 0.0 0.0 0.0 0.1 0.1
0.1 0.0 0.0 0.1 0.0 0.0 0.2 0.0 0.1 0.3 1.3 1.3 1.2 1.6 2.1 2.5 2.3 3.0 3.3 3.4 3.7 5.0 2.8 3.7 20.7 9.1 14.8 12.8 4.5 4.4 4.4 2.6 1.2 1.2 0.8 0.1 0.0 0.0
0.0 0.0 0.0 0.0 0.1 0.0 0.0 0.1 0.2 0.6 1.0 1.7 1.6 1.6 1.5 1.5 2.2 2.0 2.4 3.4 3.4 3.1 3.7 3.8 6.9 8.6 14.2 16.5 9.5 5.0 5.3 4.5 2.4 1.3 1.3 1.6 1.5 0.4
0.0 0.0 0.2 0.1 0.0 0.0 0.2 0.3 0.3 0.4 1.2 1.5 2.1 1.4 1.1 1.7 3.0 3.0 4.0 3.6 5.8 4.7 4.7 5.5 5.2 7.4 15.2 7.7 9.1 8.4 3.6 5.2 3.2 2.1 2.2 1.5 1.2 1.4
0.3 0.3 0.4 1.6 2.1 1.9 1.7 1.7 0.6 1.6 1.7 1.2 2.7 3.0 2.5 2.5 2.5 2.3 3.7 5.1 9.5 6.7 7.8 6.8 6.9 6.8 6.2 7.5 12.9 4.3 3.6 3.5 2.6 3.2 2.9 2.4 1.0 1.9
1.7 1.5 2.1 2.0 2.6 2.9 2.8 2.8 2.2 2.1 2.2 4.0 4.9 4.4 5.9 5.5 4.7 5.9 6.2 7.6 9.1 5.3 7.7 9.3 10.3 12.7 10.8 9.3 3.0 7.8 6.6 4.1 4.2 2.7 2.4 6.0 3.0 0.8
2.1 2.0 2.3 2.9 3.1 3.1 3.4 3.4 4.0 2.6 2.9 5.5 7.5 7.9 9.7 8.6 8.5 8.3 5.5 6.2 7.3 5.1 7.2 9.1 12.7 18.9 25.0 11.6 5.7 3.4 9.0 8.2 5.5 5.6 3.8 3.8 4.6 1.9
1.7 2.4 2.3 2.6 3.0 3.8 3.6 5.1 4.9 5.0 5.7 6.2 7.5 7.9 10.6 12.9 10.7 8.8 6.4 9.4 9.3 6.2 6.5 8.0 9.0 13.9 28.3 20.1 17.2 5.3 4.3 8.3 10.2 8.0 4.6 2.2 2.2 0.2
2.5 3.9 3.1 2.2 3.7 3.8 5.2 6.8 6.8 7.7 7.7 9.7 8.3 8.3 8.3 13.6 11.6 6.8 7.8 4.6 8.0 8.9 11.2 5.6 4.1 4.3 10.9 18.7 23.2 9.7 8.6 4.8 4.0 10.8 8.5 10.8 5.3 3.2
2.7 3.3 2.7 3.1 3.9 5.6 6.9 7.9 8.5 6.6 7.0 6.5 5.9 6.7 7.9 11.1 14.1 10.6 8.4 11.2 6.7 5.7 6.4 4.2 5.3 7.3 10.7 17.0 13.8 6.9 7.0 5.9 5.4 2.2 1.5 6.4 19.1 21.9
3.8 4.3 3.8 4.8 5.2 7.2 7.9 8.4 7.6 5.9 5.3 6.9 6.8 6.4 8.6 13.1 7.9 9.0 9.2 8.0 8.0 10.8 7.1 8.1 6.0 5.7 8.3 9.6 10.8 10.5 7.7 6.8 5.8 5.0 4.8 1.3 1.3 0.8

GFSNE_prec_kuchsnow_330.txt.gz
Snowfall_Accumulation
0.0 0.0 0.0 0.0 0.0 0.0 0.0 0.0 0.0 0.0 0.0 0.0 0.0 0.0 0.0 0.0 0.0 0.0 0.0 0.0 0.0 0.0 0.0 0.0 0.0 0.0 0.0 0.0 0.0 0.0 0.0 0.0 0.0 0.0 0.0 0.0 0.0 0.0
0.0 0.0 0.0 0.0 0.0 0.0 0.0 0.0 0.0 0.0 0.0 0.0 0.0 0.0 0.0 0.0 0.0 0.0 0.0 0.0 0.0 0.0 0.0 0.0 0.0 0.0 0.0 0.0 0.0 0.0 0.0 0.0 0.0 0.0 0.0 0.0 0.0 0.0
0.0 0.0 0.0 0.0 0.0 0.0 0.0 0.0 0.0 0.0 0.0 0.1 0.0 0.0 0.0 0.0 0.0 0.0 0.0 0.0 0.0 0.0 0.0 0.0 0.0 0.0 0.0 0.0 0.0 0.0 0.0 0.0 0.0 0.0 0.0 0.0 0.0 0.0
0.0 0.0 0.0 0.0 0.0 0.0 0.0 0.0 0.0 0.0 0.0 0.1 0.0 0.3 0.4 0.1 0.2 0.0 0.0 0.0 0.0 0.0 0.0 0.0 0.0 0.0 0.0 0.0 0.0 0.0 0.0 0.0 0.0 0.0 0.0 0.0 0.0 0.0
0.0 0.0 0.0 0.0 0.0 0.0 0.1 0.0 0.4 0.3 0.2 0.1 0.3 0.8 1.3 0.9 2.0 1.6 1.1 0.0 0.0 0.0 0.0 0.0 0.0 0.0 0.0 0.0 0.0 0.0 0.0 0.0 0.0 0.0 0.0 0.0 0.0 0.0
0.0 0.0 0.0 0.3 0.4 0.0 0.9 1.0 0.7 1.0 0.5 0.7 0.3 1.0 0.8 0.5 0.3 0.4 0.4 0.2 0.0 0.0 0.0 0.0 0.0 0.0 0.0 0.0 0.0 0.0 0.0 0.0 0.0 0.0 0.0 0.0 0.0 0.0
0.0 0.2 0.1 0.0 0.8 1.9 1.5 1.0 1.1 0.8 0.9 1.0 0.9 0.3 0.3 0.3 0.3 0.2 0.1 0.0 0.0 0.0 0.0 0.0 0.0 0.0 0.0 0.0 0.0 0.0 0.0 0.0 0.0 0.0 0.0 0.0 0.0 0.0
0.0 1.3 1.2 1.7 0.6 0.0 0.0 0.0 0.0 0.8 1.1 0.9 0.4 0.1 0.1 0.0 0.0 0.0 0.2 0.9 3.0 0.2 0.3 0.5 0.0 0.1 0.0 0.0 0.0 0.0 0.0 0.0 0.0 0.0 0.0 0.0 0.0 0.0
1.7 1.5 0.4 0.5 0.4 0.5 0.1 0.0 0.2 0.0 0.0 0.1 0.1 0.0 0.0 0.0 0.4 0.5 1.3 2.1 2.0 3.1 1.7 10.1 1.1 1.4 0.0 0.0 0.0 0.0 0.0 0.0 0.0 0.0 0.0 0.0 0.0 0.0
1.1 0.7 0.3 0.0 0.0 0.1 0.1 0.4 0.0 0.0 0.0 0.0 0.0 0.0 0.1 0.1 0.3 0.5 1.1 3.3 3.6 2.8 0.8 9.1 6.4 3.9 0.5 0.2 0.0 0.0 0.0 0.0 0.0 0.0 0.0 0.0 0.0 0.0
0.3 0.0 0.0 0.0 0.0 0.0 0.2 0.9 0.7 0.6 0.0 0.0 0.0 0.0 0.0 0.0 0.0 0.2 2.2 5.3 7.3 5.1 3.7 4.5 5.8 7.2 6.8 2.0 0.0 0.0 0.0 0.0 0.0 0.0 0.0 0.0 0.0 0.0
0.1 0.0 0.0 0.0 0.0 0.0 0.4 0.6 1.2 1.5 0.9 1.0 0.8 0.2 0.1 0.0 0.0 0.0 0.9 8.4 8.1 7.9 2.2 8.1 5.2 5.9 11.9 6.2 3.8 0.4 0.2 0.0 0.0 0.0 0.0 0.0 0.0 0.0
0.0 0.0 0.0 0.0 0.0 0.0 0.2 0.5 1.9 0.8 1.7 2.9 2.5 2.5 2.1 2.3 0.4 0.6 0.9 4.6 13.1 10.4 1.5 10.4 12.6 5.2 10.2 5.9 3.9 3.7 2.1 0.2 0.0 0.0 0.0 0.0 0.1 0.1
0.1 0.0 0.0 0.1 0.0 0.0 0.4 0.0 0.1 0.3 1.3 1.3 1.2 1.6 2.1 2.5 2.3 3.0 3.3 3.4 3.7 5.0 2.8 3.7 20.8 9.2 15.0 12.9 4.5 4.4 4.4 2.6 1.2 1.2 0.8 0.1 0.0 0.0
0.0 0.0 0.0 0.0 0.1 0.0 0.1 0.1 0.2 0.6 1.0 1.7 1.6 1.8 1.6 1.5 2.2 2.0 2.4 3.4 3.4 3.1 3.7 3.8 6.9 8.6 14.2 16.7 9.5 5.0 5.3 4.5 2.4 1.3 1.3 1.6 1.5 0.4
0.0 0.0 0.2 0.1 0.5 0.2 0.2 0.3 0.3 0.4 1.2 1.5 2.4 1.6 1.1 1.8 3.0 3.0 4.0 3.6 5.8 4.7 4.7 5.5 5.2 7.4 15.2 7.7 9.1 8.4 3.7 5.3 3.2 2.1 2.2 1.5 1.2 1.4
0.3 0.3 0.4 1.6 2.3 2.0 1.8 1.8 0.6 1.6 1.7 1.7 3.1 3.2 2.5 2.5 2.5 2.3 3.7 5.1 9.5 6.7 7.8 6.8 6.9 6.8 6.2 7.5 12.9 4.4 3.7 3.5 2.6 3.2 2.9 2.4 1.0 1.9
2.1 1.7 2.2 2.1 2.7 2.9 2.8 2.8 3.0 2.8 2.6 4.2 5.0 4.5 5.9 5.5 4.7 5.9 6.2 7.6 9.1 5.3 7.7 9.3 10.3 12.7 10.8 9.3 3.0 7.8 6.6 4.1 4.2 2.7 2.4 6.0 3.0 0.8
2.2 2.1 2.3 2.9 3.1 3.1 3.4 3.8 4.5 2.9 3.1 5.7 7.6 7.9 9.7 8.6 8.5 8.3 5.5 6.2 7.3 5.1 7.2 9.1 12.7 18.9 25.0 11.6 5.7 3.4 9.0 8.2 5.5 5.6 3.8 3.8 4.6 1.9
1.7 2.4 2.3 2.6 3.5 4.5 4.0 5.4 5.1 5.1 5.8 6.3 7.5 7.9 10.6 12.9 10.7 8.8 6.4 9.4 9.3 6.2 6.5 8.0 9.0 13.9 28.4 20.2 17.3 5.3 4.3 8.3 10.3 8.0 4.6 2.3 2.2 0.2
2.5 3.9 3.4 2.7 4.1 4.1 5.3 6.8 6.8 7.7 7.7 9.7 8.3 8.3 8.3 13.6 11.6 6.8 7.8 4.6 8.0 8.9 11.2 5.6 4.1 4.3 10.9 18.7 23.2 9.7 8.6 4.8 4.1 11.0 8.7 11.0 5.3 3.2
3.1 3.9 3.2 3.5 4.2 5.7 6.9 7.9 8.5 6.6 7.0 6.5 5.9 6.7 7.9 11.1 14.1 10.6 8.4 11.2 6.7 5.7 6.4 4.2 5.3 7.3 10.7 17.0 13.8 6.9 7.0 5.9 5.4 2.2 1.5 6.6 19.1 21.9
4.9 5.3 4.5 5.3 5.5 7.3 7.9 8.4 7.6 5.9 5.3 6.9 6.8 6.4 8.6 13.1 7.9 9.0 9.2 8.0 8.0 10.8 7.1 8.1 6.0 5.7 8.3 9.6 10.8 10.5 7.7 6.8 5.8 5.0 4.8 1.3 1.3 0.8

GFSNE_prec_kuchsnow_333.txt.gz
Snowfall_Accumulation
0.0 0.0 0.0 0.0 0.0 0.0 0.0 0.0 0.0 0.0 0.0 0.0 0.0 0.0 0.0 0.0 0.0 0.0 0.0 0.0 0.0 0.0 0.0 0.0 0.0 0.0 0.0 0.0 0.0 0.0 0.0 0.0 0.0 0.0 0.0 0.0 0.0 0.0
0.0 0.0 0.0 0.0 0.0 0.0 0.0 0.0 0.0 0.0 0.0 0.0 0.0 0.0 0.0 0.0 0.0 0.0 0.0 0.0 0.0 0.0 0.0 0.0 0.0 0.0 0.0 0.0 0.0 0.0 0.0 0.0 0.0 0.0 0.0 0.0 0.0 0.0
0.0 0.0 0.0 0.0 0.0 0.0 0.0 0.0 0.0 0.0 0.0 0.1 0.0 0.0 0.0 0.0 0.0 0.0 0.0 0.0 0.0 0.0 0.0 0.0 0.0 0.0 0.0 0.0 0.0 0.0 0.0 0.0 0.0 0.0 0.0 0.0 0.0 0.0
0.0 0.0 0.0 0.0 0.0 0.0 0.0 0.0 0.0 0.0 0.0 0.1 0.0 0.3 0.4 0.1 0.2 0.0 0.0 0.0 0.0 0.0 0.0 0.0 0.0 0.0 0.0 0.0 0.0 0.0 0.0 0.0 0.0 0.0 0.0 0.0 0.0 0.0
0.0 0.0 0.0 0.0 0.0 0.0 0.1 0.0 0.4 0.3 0.2 0.1 0.3 0.8 1.3 0.9 2.0 1.6 1.1 0.0 0.0 0.0 0.0 0.0 0.0 0.0 0.0 0.0 0.0 0.0 0.0 0.0 0.0 0.0 0.0 0.0 0.0 0.0
0.0 0.0 0.0 0.3 0.4 0.0 0.9 1.0 0.7 1.0 0.5 0.7 0.3 1.0 0.8 0.5 0.3 0.4 0.4 0.2 0.0 0.0 0.0 0.0 0.0 0.0 0.0 0.0 0.0 0.0 0.0 0.0 0.0 0.0 0.0 0.0 0.0 0.0
0.0 0.2 0.1 0.0 0.8 1.9 1.5 1.0 1.1 0.8 0.9 1.0 0.9 0.3 0.3 0.3 0.3 0.2 0.1 0.0 0.0 0.0 0.0 0.0 0.0 0.0 0.0 0.0 0.0 0.0 0.0 0.0 0.0 0.0 0.0 0.0 0.0 0.0
0.0 1.3 1.2 1.7 0.6 0.0 0.0 0.0 0.0 0.8 1.1 0.9 0.4 0.1 0.1 0.1 0.0 0.0 0.2 0.9 3.0 0.2 0.3 0.5 0.0 0.1 0.0 0.0 0.0 0.0 0.0 0.0 0.0 0.0 0.0 0.0 0.0 0.0
1.7 1.5 0.4 0.5 0.4 0.5 0.1 0.0 0.2 0.0 0.0 0.1 0.1 0.0 0.0 0.0 0.4 0.5 1.3 2.1 2.0 3.1 1.7 10.1 1.1 1.4 0.0 0.0 0.0 0.0 0.0 0.0 0.0 0.0 0.0 0.0 0.0 0.0
1.1 0.7 0.3 0.0 0.0 0.1 0.1 0.4 0.0 0.0 0.0 0.0 0.0 0.0 0.1 0.1 0.3 0.5 1.1 3.3 3.6 2.8 0.8 9.1 6.4 3.9 0.5 0.2 0.0 0.0 0.0 0.0 0.0 0.0 0.0 0.0 0.0 0.0
0.3 0.0 0.0 0.0 0.0 0.0 0.2 0.9 0.7 0.6 0.0 0.0 0.0 0.0 0.0 0.0 0.0 0.2 2.2 5.3 7.3 5.1 3.7 4.5 5.8 7.2 6.8 2.0 0.0 0.0 0.0 0.0 0.0 0.0 0.0 0.0 0.0 0.0
0.1 0.0 0.0 0.0 0.0 0.0 0.4 0.6 1.2 1.5 0.9 1.4 0.9 0.2 0.1 0.0 0.0 0.0 0.9 8.4 8.2 7.9 2.2 8.1 5.2 5.9 11.9 6.2 3.8 0.4 0.2 0.0 0.0 0.0 0.0 0.0 0.0 0.0
0.0 0.0 0.0 0.0 0.0 0.0 0.2 0.5 1.9 0.8 2.1 3.3 2.8 2.7 2.2 2.3 0.4 0.6 0.9 4.6 13.1 10.4 1.5 10.4 12.6 5.2 10.2 5.9 3.9 3.7 2.1 0.2 0.0 0.0 0.0 0.0 0.1 0.1
0.1 0.0 0.0 0.1 0.0 0.0 0.4 0.0 0.1 0.6 1.3 1.3 1.4 1.6 2.1 2.5 2.3 3.1 3.3 3.5 3.7 5.0 2.8 3.7 20.8 9.2 15.0 12.9 4.5 4.4 4.4 2.6 1.2 1.2 0.8 0.1 0.0 0.0
0.0 0.0 0.0 0.0 0.1 0.0 0.1 0.1 0.2 0.6 1.3 1.9 1.8 1.9 1.7 1.5 2.2 2.0 2.4 3.4 3.4 3.1 3.7 3.8 6.9 8.6 14.2 16.7 9.6 5.0 5.3 4.5 2.4 1.4 1.3 1.6 1.5 0.4
0.0 0.0 0.2 0.1 0.5 0.2 0.2 0.3 0.3 0.4 1.4 1.6 2.4 1.7 1.1 1.8 3.0 3.0 4.0 3.6 5.8 4.7 4.7 5.5 5.2 7.4 15.2 7.7 9.1 8.4 3.7 5.4 3.2 2.1 2.2 1.5 1.2 1.4
0.3 0.3 0.4 1.6 2.3 2.0 1.8 1.8 0.6 1.8 1.9 1.7 3.4 3.4 2.5 2.5 2.6 2.3 3.7 5.1 9.5 6.7 7.8 6.8 6.9 6.8 6.2 7.5 12.9 4.4 3.8 3.5 2.6 3.2 2.9 2.4 1.0 1.9
2.1 1.7 2.2 2.1 2.7 2.9 2.8 3.2 3.5 3.2 3.1 4.7 5.3 4.7 6.0 5.6 4.7 5.9 6.2 7.6 9.1 5.3 7.7 9.3 10.3 12.7 10.8 9.3 3.0 7.8 6.6 4.1 4.2 2.7 2.4 6.0 3.0 0.8
2.2 2.1 2.3 2.9 3.1 3.3 3.8 4.4 5.3 3.9 4.0 6.2 7.9 8.1 9.8 8.7 8.5 8.3 5.5 6.2 7.3 5.1 7.2 9.1 12.7 18.9 25.0 11.6 5.7 3.4 9.0 8.2 5.5 5.6 3.8 3.8 4.6 1.9
1.8 2.4 2.4 2.7 3.8 5.0 4.8 6.3 6.1 6.1 6.4 6.6 7.7 8.0 10.7 12.9 10.7 8.8 6.4 9.4 9.3 6.2 6.5 8.0 9.0 13.9 28.6 20.3 17.3 5.3 4.3 8.3 10.3 8.0 4.6 2.3 2.2 0.2
2.5 4.0 3.5 2.8 4.5 4.8 6.1 7.7 7.7 8.3 8.0 9.9 8.4 8.3 8.3 13.6 11.6 6.8 7.8 4.6 8.0 8.9 11.2 5.6 4.1 4.3 10.9 18.7 23.2 9.7 8.6 4.8 4.1 11.1 8.8 11.0 5.3 3.2
3.2 4.2 3.7 4.3 5.3 6.8 8.0 9.0 9.3 7.0 7.3 6.7 6.0 6.8 7.9 11.1 14.1 10.6 8.4 11.2 6.7 5.7 6.4 4.2 5.3 7.3 10.7 17.0 13.8 6.9 7.0 5.9 5.4 2.2 1.5 6.7 19.2 22.0
5.6 6.4 5.9 6.9 7.2 8.9 9.2 9.3 8.2 6.4 5.7 7.1 6.8 6.4 8.6 13.1 7.9 9.0 9.2 8.0 8.0 10.8 7.1 8.1 6.0 5.7 8.3 9.6 10.8 10.5 7.7 6.8 5.8 5.0 4.8 1.3 1.4 0.8

GFSNE_prec_kuchsnow_339.txt.gz
Snowfall_Accumulation
0.0 0.0 0.0 0.0 0.0 0.0 0.0 0.0 0.0 0.0 0.0 0.0 0.0 0.0 0.0 0.0 0.0 0.0 0.0 0.0 0.0 0.0 0.0 0.0 0.0 0.0 0.0 0.0 0.0 0.0 0.0 0.0 0.0 0.0 0.0 0.0 0.0 0.0
0.0 0.0 0.0 0.0 0.0 0.0 0.0 0.0 0.0 0.0 0.0 0.0 0.0 0.0 0.0 0.0 0.0 0.0 0.0 0.0 0.0 0.0 0.0 0.0 0.0 0.0 0.0 0.0 0.0 0.0 0.0 0.0 0.0 0.0 0.0 0.0 0.0 0.0
0.0 0.0 0.0 0.0 0.0 0.0 0.0 0.0 0.0 0.0 0.0 0.1 0.0 0.0 0.0 0.0 0.0 0.0 0.0 0.0 0.0 0.0 0.0 0.0 0.0 0.0 0.0 0.0 0.0 0.0 0.0 0.0 0.0 0.0 0.0 0.0 0.0 0.0
0.0 0.0 0.0 0.0 0.0 0.0 0.0 0.0 0.0 0.0 0.0 0.1 0.0 0.3 0.4 0.1 0.2 0.0 0.0 0.0 0.0 0.0 0.0 0.0 0.0 0.0 0.0 0.0 0.0 0.0 0.0 0.0 0.0 0.0 0.0 0.0 0.0 0.0
0.0 0.0 0.0 0.0 0.0 0.0 0.1 0.0 0.4 0.3 0.2 0.1 0.3 0.8 1.3 0.9 2.0 1.6 1.1 0.0 0.0 0.0 0.0 0.0 0.0 0.0 0.0 0.0 0.0 0.0 0.0 0.0 0.0 0.0 0.0 0.0 0.0 0.0
0.0 0.0 0.0 0.3 0.4 0.0 0.9 1.0 0.7 1.0 0.5 0.7 0.3 1.0 0.8 0.5 0.3 0.4 0.4 0.2 0.0 0.0 0.0 0.0 0.0 0.0 0.0 0.0 0.0 0.0 0.0 0.0 0.0 0.0 0.0 0.0 0.0 0.0
0.0 0.2 0.1 0.0 0.8 1.9 1.5 1.0 1.1 0.8 0.9 1.0 0.9 0.3 0.3 0.3 0.3 0.2 0.1 0.0 0.0 0.0 0.0 0.0 0.0 0.0 0.0 0.0 0.0 0.0 0.0 0.0 0.0 0.0 0.0 0.0 0.0 0.0
0.0 1.3 1.2 1.7 0.6 0.0 0.0 0.0 0.0 0.8 1.1 0.9 0.4 0.1 0.1 0.1 0.0 0.0 0.2 0.9 3.0 0.2 0.3 0.5 0.0 0.1 0.0 0.0 0.0 0.0 0.0 0.0 0.0 0.0 0.0 0.0 0.0 0.0
1.7 1.5 0.4 0.5 0.4 0.5 0.1 0.0 0.2 0.0 0.0 0.1 0.1 0.0 0.0 0.0 0.4 0.5 1.3 2.1 2.0 3.1 1.8 10.1 1.1 1.4 0.0 0.0 0.0 0.0 0.0 0.0 0.0 0.0 0.0 0.0 0.0 0.0
1.1 0.7 0.3 0.0 0.0 0.1 0.1 0.4 0.0 0.0 0.0 0.0 0.0 0.0 0.1 0.1 0.3 0.5 1.1 3.4 3.6 2.8 0.8 9.1 6.4 3.9 0.5 0.2 0.0 0.0 0.0 0.0 0.0 0.0 0.0 0.0 0.0 0.0
0.3 0.0 0.0 0.0 0.0 0.0 0.2 0.9 0.7 0.6 0.0 0.0 0.0 0.0 0.0 0.0 0.0 0.4 2.4 5.4 7.4 5.1 3.7 4.5 5.8 7.2 6.8 2.0 0.0 0.0 0.0 0.0 0.0 0.0 0.0 0.0 0.0 0.0
0.1 0.0 0.0 0.0 0.0 0.0 0.4 0.6 1.2 1.5 0.9 1.4 0.9 0.2 0.1 0.0 0.0 0.1 0.9 8.4 8.2 7.9 2.3 8.1 5.2 5.9 11.9 6.2 3.8 0.4 0.2 0.0 0.0 0.0 0.0 0.0 0.0 0.0
0.0 0.0 0.0 0.0 0.0 0.0 0.2 0.5 1.9 0.8 2.1 3.3 2.8 2.7 2.5 2.3 0.4 0.6 1.0 4.6 13.2 10.4 1.5 10.5 12.7 5.2 10.2 5.9 3.9 3.7 2.1 0.2 0.0 0.0 0.0 0.0 0.1 0.1
0.1 0.0 0.0 0.1 0.0 0.0 0.4 0.0 0.1 0.6 1.3 1.3 1.4 1.6 2.3 2.6 2.4 3.1 3.3 3.6 3.7 5.1 2.8 3.8 20.8 9.2 15.0 12.9 4.5 4.4 4.4 2.6 1.2 1.2 0.8 0.1 0.0 0.0
0.0 0.0 0.0 0.0 0.1 0.0 0.1 0.1 0.2 0.6 1.3 1.9 1.8 1.9 1.9 1.7 2.2 2.1 2.6 3.5 3.4 3.2 3.7 3.8 6.9 8.6 14.2 16.7 9.6 5.0 5.3 4.5 2.4 1.4 1.3 1.6 1.5 0.4
0.0 0.0 0.2 0.1 0.5 0.2 0.2 0.3 0.3 0.4 1.4 1.6 2.4 1.7 1.5 2.0 3.4 3.5 4.6 4.3 6.4 5.1 4.9 5.5 5.2 7.4 15.2 7.7 9.1 8.4 3.7 5.4 3.2 2.1 2.2 1.5 1.2 1.4
0.3 0.3 0.4 1.6 2.3 2.0 1.8 1.8 0.6 1.8 1.9 1.7 3.4 4.0 2.9 3.1 3.3 3.2 4.0 6.1 10.2 7.3 8.0 6.9 6.9 6.8 6.2 7.5 12.9 4.4 3.8 3.5 2.6 3.2 2.9 2.4 1.0 1.9
2.1 1.7 2.2 2.1 2.7 2.9 2.8 3.2 3.5 3.2 3.1 4.9 5.8 5.5 7.0 6.8 6.3 7.7 7.5 8.6 9.8 5.7 7.8 9.3 10.3 12.7 10.8 9.3 3.0 7.8 6.6 4.1 4.2 2.7 2.4 6.0 3.0 0.8
2.2 2.1 2.3 2.9 3.1 3.3 3.8 4.4 5.6 4.4 4.6 7.4 9.3 9.7 11.5 10.4 10.1 9.7 6.4 6.9 7.7 5.3 7.2 9.1 12.7 18.9 25.0 11.6 5.7 3.4 9.0 8.2 5.5 5.6 3.8 3.8 4.6 1.9
1.8 2.4 2.4 2.7 3.8 5.1 5.1 7.1 7.2 7.8 8.4 8.6 9.6 10.0 12.5 14.6 12.1 9.9 7.2 9.9 9.6 6.3 6.5 8.0 9.1 13.9 28.6 20.3 17.3 5.3 4.3 8.3 10.3 8.0 4.6 2.3 2.2 0.2
2.5 4.0 3.5 3.0 4.7 5.3 7.1 9.2 9.5 10.3 10.2 12.0 10.4 10.0 9.8 14.9 12.5 7.4 8.3 5.0 8.2 8.9 11.2 5.6 4.1 4.3 10.9 18.8 23.3 9.7 8.6 4.8 4.1 11.2 8.9 11.0 5.3 3.2
3.3 4.3 3.9 4.6 6.0 7.9 9.5 10.9 11.6 9.5 9.4 8.3 7.5 8.2 9.3 12.1 14.9 11.3 8.8 11.5 6.8 5.7 6.4 4.2 5.3 7.3 10.7 17.0 13.8 6.9 7.0 5.9 5.4 2.2 1.5 6.8 19.2 22.0
5.9 6.7 6.5 7.6 8.3 10.3 10.9 11.2 10.1 8.1 7.0 8.6 8.4 7.9 9.9 14.3 8.8 9.6 9.7 8.3 8.0 10.8 7.1 8.1 6.0 5.8 8.3 9.7 10.8 10.5 7.7 6.8 5.8 5.0 4.8 1.3 1.4 0.8

GFSNE_prec_kuchsnow_342.txt.gz
Snowfall_Accumulation
0.0 0.0 0.0 0.0 0.0 0.0 0.0 0.0 0.0 0.0 0.0 0.0 0.0 0.0 0.0 0.0 0.0 0.0 0.0 0.0 0.0 0.0 0.0 0.0 0.0 0.0 0.0 0.0 0.0 0.0 0.0 0.0 0.0 0.0 0.0 0.0 0.0 0.0
0.0 0.0 0.0 0.0 0.0 0.0 0.0 0.0 0.0 0.0 0.0 0.0 0.0 0.0 0.0 0.0 0.0 0.0 0.0 0.0 0.0 0.0 0.0 0.0 0.0 0.0 0.0 0.0 0.0 0.0 0.0 0.0 0.0 0.0 0.0 0.0 0.0 0.0
0.0 0.0 0.0 0.0 0.0 0.0 0.0 0.0 0.0 0.0 0.0 0.1 0.0 0.0 0.0 0.0 0.0 0.0 0.0 0.0 0.0 0.0 0.0 0.0 0.0 0.0 0.0 0.0 0.0 0.0 0.0 0.0 0.0 0.0 0.0 0.0 0.0 0.0
0.0 0.0 0.0 0.0 0.0 0.0 0.0 0.0 0.0 0.0 0.0 0.1 0.0 0.3 0.4 0.1 0.2 0.0 0.0 0.0 0.0 0.0 0.0 0.0 0.0 0.0 0.0 0.0 0.0 0.0 0.0 0.0 0.0 0.0 0.0 0.0 0.0 0.0
0.0 0.0 0.0 0.0 0.0 0.0 0.1 0.0 0.4 0.3 0.2 0.1 0.3 0.8 1.3 0.9 2.0 1.6 1.1 0.0 0.0 0.0 0.0 0.0 0.0 0.0 0.0 0.0 0.0 0.0 0.0 0.0 0.0 0.0 0.0 0.0 0.0 0.0
0.0 0.0 0.0 0.3 0.4 0.0 0.9 1.0 0.7 1.0 0.5 0.7 0.3 1.0 0.8 0.5 0.3 0.4 0.4 0.2 0.0 0.0 0.0 0.0 0.0 0.0 0.0 0.0 0.0 0.0 0.0 0.0 0.0 0.0 0.0 0.0 0.0 0.0
0.0 0.2 0.1 0.0 0.8 1.9 1.5 1.0 1.1 0.8 0.9 1.0 0.9 0.3 0.3 0.3 0.3 0.2 0.1 0.0 0.0 0.0 0.0 0.0 0.0 0.0 0.0 0.0 0.0 0.0 0.0 0.0 0.0 0.0 0.0 0.0 0.0 0.0
0.0 1.3 1.2 1.7 0.6 0.0 0.0 0.0 0.0 0.8 1.1 0.9 0.4 0.1 0.1 0.1 0.0 0.0 0.2 0.9 3.0 0.2 0.3 0.5 0.0 0.1 0.0 0.0 0.0 0.0 0.0 0.0 0.0 0.0 0.0 0.0 0.0 0.0
1.7 1.5 0.4 0.5 0.4 0.5 0.1 0.0 0.2 0.0 0.0 0.1 0.1 0.0 0.0 0.0 0.4 0.5 1.3 2.1 2.0 3.1 1.8 10.1 1.1 1.4 0.0 0.0 0.0 0.0 0.0 0.0 0.0 0.0 0.0 0.0 0.0 0.0
1.1 0.7 0.3 0.0 0.0 0.1 0.1 0.4 0.0 0.0 0.0 0.0 0.0 0.0 0.1 0.1 0.3 0.5 1.1 3.4 3.6 2.8 0.8 9.1 6.4 3.9 0.5 0.2 0.0 0.0 0.0 0.0 0.0 0.0 0.0 0.0 0.0 0.0
0.3 0.0 0.0 0.0 0.0 0.0 0.2 0.9 0.7 0.6 0.0 0.0 0.0 0.0 0.0 0.0 0.0 0.4 2.4 5.4 7.4 5.1 3.7 4.5 5.8 7.2 6.8 2.0 0.0 0.0 0.0 0.0 0.0 0.0 0.0 0.0 0.0 0.0
0.1 0.0 0.0 0.0 0.0 0.0 0.4 0.6 1.2 1.5 0.9 1.4 0.9 0.2 0.1 0.0 0.0 0.1 0.9 8.4 8.2 7.9 2.3 8.2 5.2 5.9 11.9 6.2 3.8 0.4 0.2 0.0 0.0 0.0 0.0 0.0 0.0 0.0
0.0 0.0 0.0 0.0 0.0 0.0 0.2 0.5 1.9 0.8 2.1 3.3 2.8 2.7 2.5 2.3 0.4 0.6 1.0 4.6 13.2 10.4 1.5 10.5 12.7 5.2 10.2 5.9 3.9 3.7 2.1 0.2 0.0 0.0 0.0 0.0 0.1 0.1
0.1 0.0 0.0 0.1 0.0 0.0 0.4 0.0 0.1 0.6 1.3 1.3 1.4 1.6 2.3 2.6 2.4 3.1 3.3 3.6 3.7 5.1 2.8 3.8 20.8 9.2 15.0 12.9 4.5 4.4 4.4 2.6 1.2 1.2 0.8 0.1 0.0 0.0
0.0 0.0 0.0 0.0 0.1 0.0 0.1 0.1 0.2 0.6 1.3 1.9 1.8 1.9 1.9 1.7 2.2 2.1 2.6 3.5 3.4 3.2 3.8 3.8 6.9 8.7 14.2 16.7 9.6 5.0 5.3 4.5 2.4 1.4 1.3 1.6 1.5 0.4
0.0 0.0 0.2 0.1 0.5 0.2 0.2 0.3 0.3 0.4 1.4 1.6 2.4 1.7 1.5 2.0 3.4 3.5 4.6 4.4 6.6 5.5 5.3 5.8 5.5 7.6 15.3 7.7 9.1 8.4 3.7 5.4 3.2 2.1 2.2 1.5 1.2 1.4
0.3 0.3 0.4 1.6 2.3 2.0 1.8 1.8 0.6 1.8 1.9 1.7 3.4 4.0 2.9 3.1 3.3 3.5 4.3 6.5 10.7 7.9 8.9 7.5 7.2 7.0 6.3 7.6 12.9 4.4 3.8 3.5 2.6 3.2 2.9 2.4 1.0 1.9
2.1 1.7 2.2 2.1 2.7 2.9 2.8 3.2 3.5 3.2 3.1 4.9 5.8 5.5 7.1 7.2 6.8 8.2 8.2 9.3 10.5 6.5 8.5 9.7 10.7 13.0 10.9 9.4 3.0 7.8 6.6 4.1 4.2 2.7 2.4 6.0 3.0 0.8
2.2 2.1 2.3 2.9 3.1 3.3 3.8 4.4 5.6 4.4 4.6 7.4 9.4 9.9 12.0 11.3 11.2 10.7 7.3 7.8 8.5 6.0 7.8 9.4 13.0 19.1 25.1 11.6 5.7 3.4 9.0 8.2 5.5 5.6 3.8 3.8 4.6 1.9
1.8 2.4 2.4 2.7 3.8 5.1 5.1 7.1 7.2 7.8 8.6 8.8 10.0 10.6 13.3 15.4 13.0 10.7 7.9 10.5 10.3 7.0 7.0 8.4 9.3 14.1 28.7 20.3 17.3 5.3 4.3 8.3 10.3 8.0 4.6 2.3 2.2 0.2
2.6 4.0 3.5 3.0 4.7 5.3 7.1 9.2 9.6 10.5 10.5 12.4 11.0 10.7 10.5 15.6 13.1 7.9 8.9 5.6 8.9 9.5 11.6 5.9 4.3 4.4 10.9 18.8 23.3 9.7 8.6 4.8 4.1 11.2 8.9 11.0 5.3 3.2
3.3 4.3 4.0 4.6 6.0 7.9 9.5 11.0 11.9 9.7 9.8 8.7 7.9 8.5 9.6 12.5 15.2 11.7 9.5 12.2 7.4 6.2 6.9 4.6 5.4 7.5 10.8 17.0 13.8 6.9 7.0 5.9 5.4 2.2 1.5 6.8 19.2 22.0
5.9 6.7 6.5 7.7 8.3 10.3 11.0 11.5 10.4 8.4 7.2 8.8 8.6 8.0 10.2 14.8 9.1 10.2 10.4 8.9 8.8 11.5 7.6 8.5 6.3 5.9 8.4 9.8 10.8 10.5 7.7 6.8 5.8 5.0 4.8 1.3 1.4 0.8